Regional Weather Roundup
Issued by NWS

Home | Current Version | Previous Version | Graphics & Text | Print | Product List | Glossary On
Versions: 1 2 3 4 5 6 7 8 9 10 11 12 13 14 15 16 17 18 19 20 21 22 23 24 25 26 27
000
ASUS45 KPSR 300410
RWRAZ

ARIZONA HOURLY REGIONAL WEATHER ROUNDUP
NATIONAL WEATHER SERVICE PHOENIX AZ
900 PM MST SUN MAY 29 2016

NOTE: FAIR INDICATES FEW OR NO CLOUDS BELOW 12,000 FEET WITH NO
SIGNIFICANT WEATHER AND/OR OBSTRUCTIONS TO VISIBILITY.

AZZ001>003-036-300500-
NORTHWEST ARIZONA

CITY           SKY/WX    TMP DP  RH WIND       PRES   REMARKS
KINGMAN        CLEAR     68  19  15 S8        29.97R
$$

AZZ004>008-015-016-018-300500-
NORTH CENTRAL ARIZONA

CITY           SKY/WX    TMP DP  RH WIND       PRES   REMARKS
GRAND CANYON   PTCLDY    56  12  17 SW3       30.16R
WILLIAMS       CLEAR     55  10  16 S9        30.24R
PRESCOTT       CLEAR     63  24  22 S7        30.07R
FLAGSTAFF      CLEAR     52  16  24 SW3       30.20R
PAYSON         PTCLDY    68  16  13 W6        30.11R
PAGE           PTCLDY    74  21  13 SE7       29.94R
$$

AZZ009>014-017-300500-
NORTHEAST ARIZONA

CITY           SKY/WX    TMP DP  RH WIND       PRES   REMARKS
WINSLOW        CLEAR     67  15  13 SW12      30.05R
SAINT JOHNS    CLEAR     64  15  15 SW8       30.09R
WINDOW ROCK    CLEAR     62  11  13 CALM      30.15R
SHOW LOW       CLEAR     55  12  18 CALM      30.16R
$$

AZZ023-300500-
GREATER PHOENIX AREA

CITY           SKY/WX    TMP DP  RH WIND       PRES   REMARKS
PHOENIX        CLEAR     88  22   9 W12       29.82R
BUCKEYE        CLEAR     81  21  11 W8        29.85R
LUKE AFB       CLEAR     85  19   8 SW15      29.82R
DEER VALLEY    CLEAR     85  22  10 SW10      29.84R
SCOTTSDALE     CLEAR     87  21   9 W9        29.85R
MESA-GATEWAY   CLEAR     86  25  10 W10       29.85
CHANDLER       CLEAR     88  21   8 SW12G18   29.82R
$$

AZZ027-028-300500-
SOUTHWEST MARICOPA COUNTY AND PINAL COUNTY

CITY           SKY/WX    TMP DP  RH WIND       PRES   REMARKS
CASA GRANDE    CLEAR     84  23  10 W12       29.86R
GILA BEND      FAIR      82  26  12 W8        29.82R
$$

AZZ503-504-507>509-300500-
SOUTHEAST ARIZONA

CITY           SKY/WX    TMP DP  RH WIND       PRES   REMARKS
TUCSON         CLEAR     83  20   9 W9        29.95R
DAVIS-MONTHAN  CLEAR     81  11   7 W12       29.93R
NOGALES        CLEAR     75  37  25 S7        30.03R
SIERRA VISTA   CLEAR     74  34  23 SW10      30.09R
DOUGLAS        CLEAR     74  35  24 W7        30.05R
SAFFORD        CLEAR     80  14   8 NW7       29.91R
$$

AZZ020-021-025-026-031-300500-
SOUTHWEST ARIZONA

CITY           SKY/WX    TMP DP  RH WIND       PRES   REMARKS
YUMA           CLEAR     83  36  18 SW6       29.81R
$$

CAZ031-033-041-043-047-048-061-300500-
SOUTHERN CALIFORNIA

CITY           SKY/WX    TMP DP  RH WIND       PRES   REMARKS
DOWNTOWN L.A.  CLEAR     62  53  72 W5        29.99R
L.A. AIRPORT   PTCLDY    60  54  80 W10       30.00R
SAN DIEGO      CLOUDY    65  55  70 NW6       30.01S
BURBANK        CLEAR     61  51  70 SE6       29.99R
ONTARIO        PTCLDY    63  52  67 W14       29.98R
RIVERSIDE      CLEAR     64  52  64 W9        29.98R
PALM SPRINGS   CLEAR     82  51  34 NW15      29.83R
EL CENTRO NAS  CLEAR     82  47  29 SW16      29.82R
IMPERIAL       CLEAR     80  48  32 W13       29.79R
BLYTHE         CLEAR     86  35  16 SW7       29.80R
NEEDLES        CLEAR     86  27  11 SW8       29.82R
$$

NVZ020-UTZ003-300500-
SOUTHERN NEVADA-UTAH

CITY           SKY/WX    TMP DP  RH WIND       PRES   REMARKS
LAS VEGAS      PTCLDY    85  15   7 S8        29.82R
SALT LAKE CITY CLOUDY    66  44  45 S10       30.05R
$$

NMZ009-TXZ055-300500-
NEW MEXICO-WEST TEXAS

CITY           SKY/WX    TMP DP  RH WIND       PRES   REMARKS
ALBUQUERQUE    PTCLDY    68  17  14 SE8       30.05R
EL PASO        PTCLDY    82  35  18 S8        30.01R
$$


........................KEY........................
SKY/WX - SKY CONDITION/WEATHER
TMP    - TEMPERATURE IN FAHRENHEIT
DP     - DEW POINT IN FAHRENHEIT
RH     - RELATIVE HUMIDITY IN PERCENT
WIND   - DIRECTION AND SPEED IN MILES PER HOUR (MPH)
VRB    - VARIABLE WIND DIRECTION
PRES   - MEAN SEA LEVEL PRESSURE IN INCHES OF MERCURY
         F - FALLING PRESSURE   R - RISING PRESSURE
         S - STEADY PRESSURE
VSB    - VISIBILITY IN MILES
HX     - HEAT INDEX IN FAHRENHEIT
WCI    - WIND CHILL INDEX IN FAHRENHEIT
TC     - TEMPERATURE IN CELSIUS WHICH IS ALSO KNOWN AS
         TEMPERATURE IN CENTIGRADE
AFB    - AIR FORCE BASE
         LUKE AFB IS LUKE AIR FORCE BASE
         DAVIS-MONTHAN IS DAVIS-MONTHAN AIR FORCE BASE
NAS    - NAVAL AIR STATION
         EL CENTRO NAS IS EL CENTRO NAVAL AIR STATION
N/A    - NOT AVAILABLE





USA.gov is the U.S. government's official web portal to all federal, state and local government web resources and services.